Location: Six Mile Lake
(44.9000°N, 79.7170°W)
Time: 22:38:16
(UTC-04:00)

BEESAT - Pass Details

Date: 29 June 2022
Orbit: 700 x 706 km, 98.6° (Epoch: 11 August)

Event Time Altitude Azimuth Distance (km) Brightness Sun altitude
Rises 23:01:32 0° 1° (N) 3,104 ? -14.7°
Reaches altitude 10° 23:04:15 10° 345° (NNW) 2,182 ? -15.0°
Maximum altitude 23:07:46 21° 298° (WNW) 1,569 ? -15.3°
Drops below altitude 10° 23:11:16 10° 250° (WSW) 2,174 ? -15.6°
Sets 23:13:59 0° 235° (SW) 3,089 ? -15.9°
